EW2167 Weather Reports


Display with metric or nautical units.
time (UTC)temp
F
wind
direction
speed
MPH
gust
MPH
rain 1hr
in
rain 24hr
in
rain mn
in
humidity
%
barometer
mb
20260502163028 51 5 4.0 13.0 0.00 0.00 0.00 53 1018.2
20260502161530 53 49 3.0 13.0 0.00 0.00 0.00 60 1018.4
20260502151554 48 26 2.0 9.0 0.00 0.00 0.00 59 1018.6
20260502123035 40 28 3.0 6.0 0.00 0.00 0.00 79 1018.3
20260502121538 40 0 0.0 2.0 0.00 0.00 0.00 84 1018.3
20260502114530 36 32 0.0 4.0 0.00 0.00 0.00 89 1017.7
20260502113036 37 27 1.0 3.0 0.00 0.00 0.00 89 1017.5
20260502111534 37 0 0.0 0.0 0.00 0.00 0.00 90 1017.6
20260502110036 35 0 0.0 0.0 0.00 0.00 0.00 91 1017.6
20260502104533 34 0 0.0 0.0 0.00 0.00 0.00 91 1017.5
20260502103032 34 0 0.0 0.0 0.00 0.00 0.00 91 1017.5
20260502101530 34 0 0.0 2.0 0.00 0.00 0.00 90 1017.6
20260502091531 35 0 0.0 0.0 0.00 0.00 0.00 90 1017.7
20260502071528 36 0 0.0 3.0 0.00 0.00 0.00 90 1017.5
20260502070045 36 0 0.0 0.0 0.00 0.00 0.00 89 1017.3
20260502064531 38 0 0.0 3.0 0.00 0.00 0.00 88 1017.3
20260502063040 38 26 2.0 4.0 0.00 0.00 0.00 89 1017.4
20260502061531 37 0 0.0 1.0 0.00 0.00 0.00 89 1017.6
20260502060030 37 26 0.0 1.0 0.00 0.00 0.00 88 1017.9
20260502054536 38 26 1.0 3.0 0.00 0.00 0.00 88 1018.1
20260502053032 38 26 2.0 3.0 0.00 0.00 0.00 88 1017.8
20260502051532 38 26 1.0 3.0 0.00 0.00 0.00 87 1017.8
20260502050038 39 0 0.0 0.0 0.00 0.00 0.00 87 1017.7
20260502044531 39 0 0.0 0.0 0.00 0.00 0.00 87 1017.7
20260502043030 39 0 0.0 0.0 0.00 0.00 0.00 87 1018.0
20260502041532 39 0 0.0 0.0 0.00 0.00 0.00 87 1018.1
20260502040032 39 0 0.0 2.0 0.00 0.00 0.00 86 1018.1
20260502034530 39 0 0.0 2.0 0.00 0.00 0.00 85 1018.1
20260502033032 40 0 0.0 3.0 0.00 0.00 0.00 85 1018.2
20260502031530 40 0 0.0 1.0 0.00 0.00 0.00 84 1018.1
20260502030031 42 0 0.0 0.0 0.00 0.00 0.00 80 1017.8
20260502024530 42 0 0.0 0.0 0.00 0.00 0.00 81 1017.8
20260502023030 42 0 0.0 2.0 0.00 0.00 0.00 80 1017.8
20260502021530 42 0 0.0 2.0 0.00 0.00 0.00 82 1017.6
20260502020028 43 0 0.0 0.0 0.00 0.00 0.00 79 1017.4
20260502014535 44 0 0.0 1.0 0.00 0.00 0.00 76 1017.2
20260502013032 44 0 0.0 0.0 0.00 0.00 0.00 77 1017.0
20260502011530 45 0 0.0 1.0 0.00 0.00 0.00 76 1016.8
20260502010035 46 0 0.0 0.0 0.00 0.00 0.00 74 1016.7
20260502004531 48 0 0.0 3.0 0.00 0.00 0.00 64 1016.3
20260502003030 49 0 0.0 3.0 0.00 0.00 0.00 63 1015.9
20260502001532 50 34 1.0 4.0 0.00 0.00 0.00 61 1015.4
20260502000053 50 0 1.0 4.0 0.00 0.00 0.00 59 1015.5
20260501234534 51 0 1.0 6.0 0.00 0.00 0.00 58 1015.7
20260501233031 52 292 1.0 5.0 0.00 0.00 0.00 55 1015.6
20260501231528 52 325 1.0 7.0 0.00 0.00 0.00 54 1015.4
20260501230030 53 0 1.0 11.0 0.00 0.00 0.00 54 1015.5
20260501224556 53 348 3.0 8.0 0.00 0.00 0.00 54 1015.7
20260501223030 53 278 1.0 13.0 0.00 0.00 0.00 54 1015.5
20260501221532 53 16 3.0 13.0 0.00 0.00 0.00 52 1015.5
20260501220038 54 295 2.0 12.0 0.00 0.00 0.00 52 1015.6
20260501214528 54 316 3.0 12.0 0.00 0.00 0.00 57 1015.5
20260501213032 54 333 2.0 11.0 0.00 0.00 0.00 54 1015.6
20260501211532 53 194 3.0 12.0 0.00 0.00 0.00 56 1015.5
20260501210030 55 342 1.0 15.0 0.00 0.00 0.00 60 1015.3
20260501204532 55 39 5.0 12.0 0.00 0.00 0.00 56 1015.3
20260501203030 54 347 2.0 13.0 0.00 0.00 0.00 59 1015.4
20260501201530 55 57 8.0 18.0 0.00 0.00 0.00 56 1015.3
20260501200041 56 351 2.0 9.0 0.00 0.00 0.00 58 1015.3
20260501194544 54 5 6.0 13.0 0.00 0.00 0.00 58 1015.2
20260501193035 55 331 2.0 12.0 0.00 0.00 0.00 59 1015.1
20260501191531 56 333 5.0 17.0 0.00 0.00 0.00 60 1015.1
20260501190036 55 294 4.0 16.0 0.00 0.00 0.00 66 1015.0
20260501184532 55 360 7.0 16.0 0.00 0.00 0.00 60 1015.0
20260501183035 55 294 5.0 15.0 0.00 0.00 0.00 60 1015.0
20260501181532 54 297 7.0 18.0 0.00 0.00 0.00 63 1015.0
20260501180030 55 272 4.0 13.0 0.00 0.00 0.00 65 1014.8